{"data":{"norad_id":57067,"epoch":"2026-05-25T00:15:28.927008Z","epoch_age_seconds":84591,"freshness":"FRESH","line1":"1 57067U 23088V   26145.01075147 -.00000284  00000+0 -78264-6 0  9997","line2":"2 57067  43.0046  39.7173 0001135 269.7768  90.2954 15.27574451162008","mean_motion":15.27574451,"eccentricity":0.0001135,"inclination_deg":43.0046,"raan_deg":39.7173,"arg_perigee_deg":269.7768,"mean_anomaly_deg":90.2954,"bstar":-7.8264e-7,"rev_number":16200,"period_min":94.267091142911,"perigee_km":482.2869652844,"apogee_km":483.84445829998,"semimajor_km":6861.2027117922,"source":"CELESTRAK","updated_at":"2026-05-25T13:38:18.212087Z"}}